Location: Brussels School
(38.9528°N, 90.5979°W)
Time: 06:26:38
(UTC+00:00)

Daily predictions for brighter satellites

Satellite Brightness Start Highest point End
(mag) Time Altitude Azimuth Time Altitude Azimuth Time Altitude Azimuth
CBERS-1 4.0 12:01:45 10° NNE 12:06:53 85° WNW 12:11:59 10° SSW
Cosmos 1025 Rocket 3.1 12:04:56 10° SSW 12:09:11 54° W 12:13:28 10° N
Cosmos 2297 3.8 12:08:44 10° NNW 12:14:16 59° WSW 12:19:45 10° S
Cosmos 1674 Rocket 4.3 12:11:15 10° SW 12:15:13 32° WNW 12:19:14 10° NNW
Lacrosse 5 rocket 2.9 12:13:39 10° NNW 12:16:14 20° NE 12:18:45 10° E
Cosmos 1943 3.3 12:10:47 10° SW 12:16:15 56° WNW 12:21:47 10° NNE
Cosmos 1484 Rocket 3.1 12:13:42 10° N 12:16:56 34° WNW 12:20:07 10° SW
Cosmos 1400 Rocket 3.4 12:15:51 10° NNW 12:19:05 30° W 12:22:18 10° SSW
Cosmos 2369 Rocket 2.5 12:13:39 10° NNW 12:19:09 52° WSW 12:24:39 10° S
Cosmos 1603 4.1 12:13:50 10° SSW 12:19:33 75° ESE 12:25:17 10° NNE
USA 229 DEB 4.2 12:15:16 10° WSW 12:20:28 30° NW 12:26:12 10° NNE
USA 229 4.2 12:15:28 10° WSW 12:20:40 31° NW 12:26:25 10° NNE
USA 267 4.4 12:16:34 10° NNE 12:21:33 24° NNW 12:26:32 10° WNW
Landsat 7 4.3 23:09:37 10° SE 23:13:53 38° ENE 23:18:10 10° N
Cosmos 1725 Rocket 4.3 23:08:34 10° SSW 23:14:49 76° W 23:21:08 10° N
Cosmos 2233 Rocket 4.0 23:09:48 10° S 23:16:04 75° E 23:22:23 10° N
Cosmos 1300 Rocket 3.6 23:12:48 10° S 23:17:11 87° E 23:21:35 10° N
CORIOLIS 4.1 23:14:51 10° SSE 23:20:10 69° ENE 23:25:30 10° N
Cosmos 407 Rocket 3.8 23:19:34 10° S 23:24:33 47° ESE 23:29:29 10° NNE
ISS -3.7 23:21:27 10° SW 23:24:47 79° NW 23:28:08 10° NE
CZ-2D R/B 3.0 23:23:08 10° SSE 23:26:09 44° ENE 23:29:11 10° N
SL-12 R/B(2) 4.3 23:19:11 10° SSW 23:26:43 69° ESE 23:35:47 10° NE
OAO 3 Rocket 4.1 23:24:30 10° SW 23:28:50 38° SSE 23:33:05 10° E
Cosmos 1943 Rocket 2.5 23:23:34 10° S 23:28:56 47° ESE 23:34:16 10° NE
Cosmos 2082 Rocket 3.6 23:25:44 10° NNE 23:29:16 17° NE 23:32:48 10° E
Cosmos 2278 Rocket 2.5 23:23:58 10° S 23:29:19 45° ESE 23:34:41 10° NE
Aureole 3 Rocket 3.4 23:28:50 10° SSE 23:31:23 23° E 23:33:53 10° NE
IRS-1C 4.1 23:26:24 10° SSE 23:31:39 67° ENE 23:36:57 10° N
Cosmos 1975 Rocket 3.1 23:29:02 10° N 23:33:18 54° E 23:37:35 10° SSE
ATLAS 5 CENTAUR R/B 2.0 23:31:06 10° NNW 23:35:37 54° NE 23:41:12 10° SE
MOS 1 Rocket 3.5 23:36:06 10° SE 23:40:03 39° ENE 23:44:09 10° N
SAR-Lupe-1 3.9 23:36:48 10° SSE 23:40:20 82° ENE 23:43:55 10° N
COSMO-SKYMED 1 3.5 23:36:59 10° NE 23:40:23 24° E 23:43:45 10° SSE
USA 215 3.2 23:35:58 10° SE 23:42:29 79° NE 23:49:02 10° NW
SKYMED 2 4.0 23:40:40 10° NNE 23:44:48 41° E 23:48:54 10° S
Helios 1A Rocket 3.5 23:43:02 14° NE 23:45:16 25° E 23:48:07 10° SSE
SAR-Lupe-4 4.3 23:49:01 10° S 23:52:32 55° W 23:56:03 10° NNW
RESURS DK-1 3.1 23:51:15 10° N 23:54:49 30° ENE 23:57:09 17° ESE
